Weather reports worldwide

Advertisment
La Coruna/Alvedro, Spain (8002): temperature & dewpoint: 19.09.2020 02:00:00 - 25.09.2020 02:00:00 (CEST)La Coruna/Alvedro, Spain (8002): wind speed: 19.09.2020 02:00:00 - 25.09.2020 02:00:00 (CEST)La Coruna/Alvedro, Spain (8002): wind direction: 19.09.2020 02:00:00 - 25.09.2020 02:00:00 (CEST)La Coruna/Alvedro, Spain (8002): reduced air pressure: 19.09.2020 02:00:00 - 25.09.2020 02:00:00 (CEST)La Coruna/Alvedro, Spain (8002): visibility: 19.09.2020 02:00:00 - 25.09.2020 02:00:00 (CEST)
Date & Time tt [°C] td [°C] ff [km/h] ff [kn] dd ppp [hPa] vv [km]
25.09.2020 02:00:00 13,4 8,0 13 7 NW 1022,1 23
25.09.2020 01:00:00 13,1 7,9 8 4 NW 1021,9 10
25.09.2020 00:00:00 14,0 7,1 13 7 NW 1021,3 10
24.09.2020 23:00:00 14,1 8,5 15 8 WNW 1020,9 18
24.09.2020 22:00:00 14,5 9,9 13 7 NNW 1020,2 10
24.09.2020 21:00:00 14,6 10,7 15 8 NNW 1019,4 10
24.09.2020 20:00:00 14,7 11,5 11 6 NW 1018,7 10
24.09.2020 19:00:00 15,5 12,3 21 11 NW 1017,7 13
24.09.2020 18:00:00 17,6 11,9 16 9 - 1016,6 10
24.09.2020 17:00:00 16,5 12,3 24 13 W 1016,6 17
24.09.2020 16:00:00 18,9 10,9 28 15 WNW 1016,0 25
24.09.2020 15:00:00 17,6 12,0 18 10 W 1016,1 14
24.09.2020 14:00:00 18,4 12,0 21 11 W 1015,8 10
24.09.2020 13:00:00 16,4 12,4 16 9 WSW 1016,1 10
24.09.2020 12:00:00 14,5 12,1 16 9 W 1016,0 9
24.09.2020 11:00:00 16,0 12,0 11 6 SSW 1015,2 10
24.09.2020 10:00:00 14,9 11,3 11 6 SW 1014,9 10
24.09.2020 09:00:00 14,2 10,8 15 8 WSW 1014,6 30
24.09.2020 08:00:00 12,7 10,5 16 9 SW 1014,8 30
24.09.2020 07:00:00 12,1 10,2 11 6 SSW 1014,9 30
24.09.2020 06:00:00 12,5 10,4 11 6 S 1014,8 30
24.09.2020 05:00:00 12,4 10,8 11 6 SW 1015,5 10
24.09.2020 04:00:00 14,0 11,3 9 5 W 1015,6 10
24.09.2020 03:00:00 14,5 11,8 13 7 WSW 1015,5 30
24.09.2020 02:00:00 14,8 12,1 11 6 WSW 1015,6 30
24.09.2020 01:00:00 14,6 12,8 5 3 WSW 1015,7 10
24.09.2020 00:00:00 14,6 14,0 8 4 SSE 1015,5 10
23.09.2020 23:00:00 14,5 14,0 11 6 S 1015,4 17
23.09.2020 22:00:00 14,4 13,8 2 1 - 1015,4 5
23.09.2020 21:00:00 14,4 13,6 9 5 NNW 1014,6 10
23.09.2020 20:00:00 15,4 13,9 13 7 NNW 1014,0 30
23.09.2020 19:00:00 18,5 12,7 21 11 NW 1013,0 30
23.09.2020 18:00:00 19,4 14,0 16 9 NW 1012,7 10
23.09.2020 17:00:00 20,1 13,6 16 9 NNW 1012,2 10
23.09.2020 16:00:00 22,0 14,3 9 5 W 1012,3 30
23.09.2020 15:00:00 20,5 13,7 13 7 NW 1012,6 30
23.09.2020 14:00:00 19,3 13,9 16 9 NW 1012,8 30
23.09.2020 13:00:00 18,9 15,0 13 7 NW 1012,6 10
23.09.2020 12:00:00 18,7 14,2 15 8 W 1012,5 30
23.09.2020 11:00:00 18,2 15,4 2 1 - 1012,2 10
23.09.2020 10:00:00 17,1 15,4 5 3 WSW 1011,8 10
23.09.2020 09:00:00 16,3 15,3 8 4 S 1011,4 10
23.09.2020 08:00:00 16,3 15,5 9 5 S 1011,0 11
23.09.2020 07:00:00 17,3 14,8 11 6 W 1010,7 10
23.09.2020 06:00:00 17,4 14,9 13 7 W 1010,5 10
23.09.2020 05:00:00 17,6 14,7 16 9 W 1010,4 10
23.09.2020 04:00:00 18,1 15,2 22 12 WSW 1010,3 10
23.09.2020 03:00:00 18,4 16,0 22 12 SW 1009,9 30
23.09.2020 02:00:00 17,6 16,5 9 5 S 1009,8 10
23.09.2020 01:00:00 17,6 16,1 15 8 S 1010,5 10
23.09.2020 00:00:00 17,7 16,2 13 7 SSE 1010,7 10
22.09.2020 23:00:00 17,7 16,4 21 11 S 1011,4 10
22.09.2020 22:00:00 18,0 16,3 13 7 SSE 1011,8 18
22.09.2020 21:00:00 18,6 15,4 8 4 ESE 1012,1 30
22.09.2020 20:00:00 18,6 15,9 5 3 N 1012,4 10
22.09.2020 19:00:00 19,0 15,1 9 5 NNE 1012,5 10
22.09.2020 18:00:00 22,3 15,4 8 4 NW 1012,4 10
22.09.2020 17:00:00 23,9 13,7 11 6 S 1013,0 30
22.09.2020 16:00:00 23,3 13,4 11 6 S 1013,7 10
22.09.2020 15:00:00 22,6 13,7 9 5 S 1014,7 10
22.09.2020 14:00:00 21,1 14,6 8 4 - 1015,2 10
22.09.2020 13:00:00 19,7 13,7 9 5 SW 1016,0 30
22.09.2020 12:00:00 19,4 14,1 5 3 SSW 1016,5 10
22.09.2020 11:00:00 17,7 14,3 9 5 SSE 1016,6 10
22.09.2020 10:00:00 15,4 13,7 9 5 S 1016,6 8
22.09.2020 09:00:00 13,1 12,8 5 3 SSE 1016,9 7
22.09.2020 08:00:00 13,3 12,8 5 3 S 1016,8 7
22.09.2020 07:00:00 13,5 13,0 5 3 SW 1016,9 6
22.09.2020 06:00:00 13,7 13,1 4 2 NW 1016,6 4,7
22.09.2020 05:00:00 14,0 13,5 4 2 S 1016,8 7
22.09.2020 04:00:00 14,4 13,8 9 5 S 1017,2 3,0
22.09.2020 03:00:00 14,8 14,2 8 4 SSW 1017,8 10
22.09.2020 02:00:00 15,3 14,5 9 5 SSW 1018,4 13
22.09.2020 01:00:00 15,8 14,8 8 4 S 1018,9 11
22.09.2020 00:00:00 16,5 15,2 5 3 SSW 1019,3 17
21.09.2020 23:00:00 17,0 15,7 5 3 S 1019,3 10
21.09.2020 22:00:00 16,9 15,2 0 0 N 1019,1 10
21.09.2020 21:00:00 17,7 15,5 5 3 NNW 1018,8 10
21.09.2020 20:00:00 18,6 15,5 9 5 NNW 1018,8 16
21.09.2020 19:00:00 19,5 15,4 13 7 NNW 1018,6 10
21.09.2020 18:00:00 20,4 15,4 13 7 NNW 1018,4 30
21.09.2020 17:00:00 20,9 15,0 15 8 N 1018,6 27
21.09.2020 16:00:00 19,3 15,2 8 4 NNE 1018,8 10
21.09.2020 15:00:00 20,5 15,8 9 5 NNE 1019,2 10
21.09.2020 14:00:00 20,0 15,0 8 4 NNE 1019,4 10
21.09.2020 13:00:00 20,5 14,8 8 4 NNW 1019,6 30
21.09.2020 12:00:00 20,9 15,2 5 3 S 1019,6 10
21.09.2020 11:00:00 18,4 15,3 9 5 SSW 1019,6 10
21.09.2020 10:00:00 17,1 15,0 9 5 SSW 1019,4 10
21.09.2020 09:00:00 16,3 15,3 9 5 S 1019,4 27
21.09.2020 08:00:00 16,5 16,0 4 2 S 1018,9 4,0
21.09.2020 07:00:00 16,6 16,1 0 0 N 1018,6 9
21.09.2020 06:00:00 16,5 16,0 2 1 - 1018,5 8
21.09.2020 05:00:00 16,6 16,1 2 1 ESE 1018,6 11
21.09.2020 04:00:00 16,6 16,0 2 1 E 1018,9 10
21.09.2020 03:00:00 16,3 15,7 0 0 N 1019,2 24
21.09.2020 02:00:00 16,2 15,6 2 1 - 1019,4 9
21.09.2020 01:00:00 16,6 15,3 9 5 SSW 1019,3 3,8
21.09.2020 00:00:00 17,0 16,2 9 5 SSW 1019,5 6
20.09.2020 23:00:00 17,6 16,6 8 4 SW 1019,6 5
20.09.2020 22:00:00 18,3 16,9 0 0 N 1019,2 9
20.09.2020 21:00:00 18,7 16,8 2 1 N 1018,6 26
20.09.2020 20:00:00 18,6 16,6 5 3 NW 1018,3 10
20.09.2020 19:00:00 19,1 16,3 11 6 NW 1017,7 10
20.09.2020 18:00:00 20,0 16,4 13 7 NNW 1017,3 10
20.09.2020 17:00:00 20,4 16,8 15 8 NNE 1016,8 30
20.09.2020 16:00:00 20,6 16,6 13 7 N 1016,9 10
20.09.2020 15:00:00 20,2 16,7 11 6 N 1017,2 30
20.09.2020 14:00:00 20,4 16,8 9 5 NNE 1017,3 10
20.09.2020 13:00:00 20,2 16,8 4 2 - 1017,4 10
20.09.2020 12:00:00 18,3 15,9 0 0 N 1017,7 10
20.09.2020 11:00:00 16,3 14,9 8 4 N 1017,3 11
20.09.2020 10:00:00 15,0 14,2 0 0 N 1016,7 10
20.09.2020 09:00:00 14,3 13,6 0 0 N 1016,4 13
20.09.2020 08:00:00 14,3 13,7 4 2 S 1015,9 17
20.09.2020 07:00:00 14,2 13,7 4 2 S 1015,8 10
20.09.2020 06:00:00 14,2 13,9 2 1 - 1015,7 9
20.09.2020 05:00:00 13,8 13,5 4 2 SW 1015,7 6
20.09.2020 04:00:00 14,2 13,9 5 3 S 1015,9 6
20.09.2020 03:00:00 14,2 13,9 8 4 S 1016,0 4,5
20.09.2020 02:00:00 14,9 14,3 0 0 N 1016,0 8
20.09.2020 01:00:00 14,9 14,3 9 5 S 1016,1 10
20.09.2020 00:00:00 15,9 14,9 0 0 N 1016,0 10
19.09.2020 23:00:00 16,3 15,2 0 0 N 1016,2 10
19.09.2020 22:00:00 17,2 15,5 0 0 N 1015,8 10
19.09.2020 21:00:00 17,5 15,5 4 2 NE 1015,3 28
19.09.2020 20:00:00 17,6 15,8 5 3 NE 1014,8 10
19.09.2020 19:00:00 17,8 16,0 9 5 NNE 1014,2 10
19.09.2020 18:00:00 19,8 15,4 13 7 NNE 1013,5 30
19.09.2020 17:00:00 20,9 16,6 8 4 NNE 1013,4 10
19.09.2020 16:00:00 18,8 16,7 9 5 NNE 1013,7 12
19.09.2020 15:00:00 19,1 16,7 9 5 N 1013,9 20
19.09.2020 14:00:00 20,1 15,3 5 3 NNE 1013,8 10
19.09.2020 13:00:00 23,0 16,0 15 8 SW 1013,2 10
19.09.2020 12:00:00 21,8 15,9 5 3 - 1013,1 10
19.09.2020 11:00:00 19,7 15,5 9 5 SSW 1012,6 10
19.09.2020 10:00:00 18,4 15,1 4 2 - 1012,2 10
19.09.2020 09:00:00 16,5 14,7 11 6 S 1011,7 10
19.09.2020 08:00:00 15,0 14,0 5 3 S 1010,8 30
19.09.2020 07:00:00 14,8 14,2 5 3 SSW 1010,3 10
19.09.2020 06:00:00 15,2 14,4 2 1 SW 1009,9 10
19.09.2020 05:00:00 15,3 14,5 5 3 SE 1009,8 10
19.09.2020 04:00:00 15,7 14,6 2 1 - 1009,7 10
19.09.2020 03:00:00 15,9 14,4 4 2 S 1009,8 28
19.09.2020 02:00:00 16,5 14,5 0 0 N 1009,6 10

tt = temperature
td = dewpoint
ff = wind speed
dd = wind direction
ppp = reduced air pressure
vv = visibility

Next stations